Wind_Speed
37 35 37 35 33 33 22 16 14 15 13 22 28 36 31 33 34 33 22 24 20 15 13 13 12 12 12 10 7 6 5 4 3 5 4 1 2 4 7 6 9 11 13 13 12 12 12 12 14
41 38 38 39 36 35 24 21 23 24 21 26 29 39 43 42 36 36 24 20 19 16 18 17 16 15 16 14 11 9 8 7 6 6 5 2 2 3 5 6 9 10 11 11 11 11 12 13 14
43 40 40 42 40 37 25 32 23 27 28 29 34 36 49 45 48 39 33 25 21 20 20 22 21 20 19 18 17 14 12 10 7 7 6 3 2 1 3 5 7 10 12 11 11 12 13 14 16
43 42 44 45 41 35 33 39 36 26 35 33 36 43 47 49 46 42 36 28 24 24 22 23 24 21 21 20 19 18 16 13 11 9 8 6 4 1 1 2 6 9 12 14 14 13 14 15 17
46 46 47 48 44 38 39 37 47 34 29 40 39 41 52 52 54 51 45 35 30 28 26 25 26 25 23 22 21 20 19 18 15 14 11 8 7 5 4 4 6 9 11 13 15 15 14 17 18
43 48 51 52 48 42 41 43 50 48 34 34 43 40 54 61 57 57 48 43 35 31 32 28 28 27 26 25 24 22 22 21 18 17 17 13 10 7 6 6 6 8 11 14 19 17 17 19 21
39 42 46 49 53 49 44 43 43 50 42 35 40 39 50 52 57 52 45 43 46 34 34 32 31 31 29 29 27 24 22 22 22 21 19 16 14 12 9 7 6 7 9 11 16 18 19 21 23
41 42 45 46 45 48 45 40 46 46 45 41 37 40 49 44 50 53 49 41 47 38 37 36 34 34 34 33 31 27 24 23 24 22 20 17 14 14 13 12 10 9 9 10 11 15 18 22 20
42 43 44 39 38 39 40 41 39 30 37 38 39 38 44 51 54 56 53 44 47 44 40 41 37 38 36 35 33 31 28 26 24 23 20 19 17 14 14 14 13 11 10 10 10 13 16 22 20
41 41 36 34 35 36 35 42 40 32 36 35 36 37 32 57 54 46 32 47 45 51 45 43 44 43 39 38 37 34 31 28 27 24 22 22 22 21 19 18 16 15 14 11 12 13 16 20 17
37 36 37 38 40 38 39 38 44 35 41 38 36 36 26 40 50 54 44 42 41 57 49 50 50 48 45 42 40 38 34 33 30 29 26 26 25 24 23 21 21 17 17 14 14 15 14 17 15
40 40 40 39 40 42 42 42 43 48 44 36 37 36 37 45 49 50 38 45 38 51 59 53 53 53 49 46 44 42 40 37 35 31 31 28 28 25 25 24 23 20 19 18 17 14 15 17 16
42 44 45 45 44 44 44 44 46 46 47 38 38 43 43 38 46 52 48 40 46 47 57 58 55 55 52 49 49 47 45 43 38 37 34 32 31 30 29 27 25 24 24 21 19 17 17 19 16
39 44 46 48 49 49 49 50 50 44 47 51 41 49 46 45 43 50 48 44 47 42 54 63 56 58 58 55 52 52 50 48 47 44 40 39 36 34 33 30 29 28 27 27 22 18 17 12 13
39 42 44 45 46 49 51 54 53 46 46 53 54 46 44 55 56 52 52 47 44 44 46 60 65 56 59 58 57 57 55 55 52 50 49 45 42 38 35 35 35 34 31 30 26 25 20 11 15
36 39 41 38 42 44 43 54 47 46 48 48 51 59 62 60 57 57 55 51 48 43 45 55 64 63 59 57 61 63 61 59 58 53 50 45 43 43 42 39 39 39 35 33 27 31 24 21 21
35 38 39 37 37 41 42 49 46 46 49 54 50 51 55 57 60 58 61 56 51 44 41 48 65 68 63 64 63 66 63 60 67 64 50 49 46 47 46 45 42 43 40 39 34 32 26 22 21
31 35 38 40 33 26 26 34 48 48 47 50 52 53 52 52 54 59 60 60 47 46 41 49 56 66 68 66 67 69 75 66 70 68 55 59 54 54 51 50 47 49 48 40 39 31 26 31 20
38 38 39 37 34 31 33 37 41 32 43 51 51 52 52 54 56 55 56 55 50 50 45 48 51 69 66 69 70 68 76 73 73 70 69 63 62 59 56 56 53 53 52 43 41 37 32 31 31
36 38 41 42 40 42 42 41 35 36 46 48 41 43 46 50 50 50 51 53 51 51 47 43 59 56 73 68 74 74 74 66 79 75 77 66 65 66 62 59 59 55 55 50 47 41 38 38 41
39 40 39 41 43 41 49 54 43 41 43 49 44 40 43 43 46 49 51 50 51 49 48 37 48 57 64 79 75 83 82 69 67 69 72 70 64 72 68 66 63 61 55 54 52 48 44 46 42
40 39 42 40 39 35 29 41 50 52 52 53 49 40 43 43 47 49 48 39 49 49 45 39 45 55 58 61 80 82 83 89 75 84 83 74 69 79 69 77 69 62 53 50 47 48 53 49 38
31 35 36 36 40 39 42 39 43 44 48 47 37 31 35 40 45 47 47 45 43 44 44 43 45 56 56 53 56 83 87 92 86 76 65 78 70 75 68 74 82 71 46 41 40 32 27 31 31
30 36 42 38 40 44 39 44 44 36 43 45 37 34 29 34 42 48 51 50 47 43 41 43 42 51 59 57 50 58 77 92 84 77 77 83 88 78 80 74 66 58 61 48 38 40 40 34 28
43 38 46 43 44 42 29 34 46 32 33 36 31 37 37 41 45 43 41 45 44 44 45 44 42 44 52 56 53 55 53 71 91 81 78 76 84 84 88 75 63 69 62 62 44 38 36 34 37
45 45 45 47 45 41 36 26 23 24 26 28 26 28 39 46 49 47 42 39 48 48 48 45 43 41 44 45 49 47 52 46 53 71 85 90 58 67 83 74 78 68 55 48 57 42 29 30 39
43 47 39 30 32 44 43 35 27 29 26 35 40 26 34 42 49 44 38 41 36 40 44 46 46 44 46 45 47 46 46 48 43 46 50 65 82 54 51 79 73 67 67 51 60 60 35 32 40
41 39 32 37 42 44 43 42 38 30 31 30 23 23 35 45 48 46 41 41 37 34 38 41 42 42 44 45 46 48 47 45 48 46 47 51 45 63 52 51 57 54 53 62 53 43 31 41 43
44 33 31 29 29 39 38 25 19 24 29 30 28 34 28 36 43 41 38 37 37 38 37 38 39 39 38 40 41 42 45 46 43 42 42 39 38 35 48 60 51 54 50 48 50 46 50 44 41
30 31 34 33 31 26 34 40 26 27 37 34 25 28 34 38 45 44 37 40 42 41 40 40 40 38 38 37 38 37 39 40 39 41 44 46 43 42 40 38 40 47 56 53 53 50 45 37 39
Wind_Direction
234 233 236 233 230 229 214 198 189 162 209 234 243 241 236 232 216 237 234 246 257 253 243 241 245 254 253 235 220 223 253 275 278 273 257 231 292 7 25 41 46 43 42 42 38 41 39 41 43
233 235 235 236 232 229 211 180 197 201 223 229 225 244 242 243 225 238 235 229 242 257 257 245 242 245 252 254 243 239 250 259 261 268 257 260 297 32 37 52 47 35 41 41 46 42 40 37 38
233 233 236 235 229 228 211 200 208 232 237 238 219 223 239 241 242 242 246 247 257 261 260 252 246 248 252 258 259 252 255 260 267 272 271 271 282 93 52 59 36 43 45 44 47 42 33 28 23
234 233 234 237 234 227 211 205 201 220 228 219 226 225 233 238 245 244 246 236 240 251 252 255 256 255 255 260 261 262 258 263 271 275 278 278 279 266 261 313 31 35 40 42 42 33 20 18 17
235 233 234 236 237 231 221 202 206 205 235 226 224 228 232 238 237 239 248 248 232 246 247 244 251 254 254 258 261 266 267 267 273 279 282 290 277 273 267 281 356 27 28 37 26 24 21 14 10
236 236 236 236 239 235 240 216 215 205 217 239 225 220 231 235 238 245 241 241 236 229 245 241 243 248 251 253 262 266 272 268 267 273 279 275 278 273 279 299 333 354 14 31 29 24 21 18 10
241 241 241 240 239 239 239 247 241 225 210 224 235 231 236 239 241 235 237 232 239 224 233 239 235 242 247 248 258 262 268 270 269 271 274 282 278 274 275 288 300 316 339 11 25 28 20 13 5
244 243 240 240 240 241 242 244 253 258 238 226 225 231 243 239 244 244 234 231 238 226 226 237 235 236 239 245 255 261 265 268 270 268 271 274 276 280 285 284 289 297 318 354 1 13 15 10 0
244 243 242 242 245 246 241 240 238 255 260 263 257 225 241 248 251 251 251 233 241 231 226 234 233 230 238 246 252 257 262 267 269 270 267 270 271 277 284 286 290 292 307 316 351 10 7 10 360
245 245 244 242 245 247 244 236 225 243 258 262 265 271 261 258 259 263 258 255 237 241 224 226 231 230 234 242 248 253 255 263 267 268 271 268 270 273 280 285 286 291 293 305 323 351 10 9 2
247 249 248 244 245 244 242 238 225 223 247 252 265 271 257 262 266 263 250 250 240 244 233 224 228 229 234 237 242 249 252 259 263 266 269 268 269 272 274 276 280 285 288 295 306 331 353 1 359
249 252 248 244 243 243 243 241 235 220 235 252 255 258 255 249 261 266 260 255 249 238 245 228 226 232 232 233 235 241 245 250 255 256 261 265 265 267 271 273 277 279 281 288 295 319 338 341 0
246 246 249 250 247 245 244 241 242 238 239 236 245 253 262 265 261 263 261 255 252 235 240 237 230 234 236 235 234 239 243 245 246 251 255 260 262 264 265 269 274 273 280 280 284 298 314 338 334
251 248 245 245 248 251 250 243 239 241 240 228 237 253 248 253 255 261 264 257 251 237 236 243 231 231 238 238 236 240 246 247 250 250 253 253 254 255 259 262 267 268 272 276 287 294 303 314 319
258 252 246 244 249 253 257 255 250 248 241 239 226 235 254 259 262 260 268 266 259 246 235 238 243 227 233 237 234 237 241 245 246 251 253 255 252 250 254 261 263 264 264 266 269 275 284 286 298
263 261 256 250 251 249 259 251 250 253 255 243 237 238 239 255 263 269 269 267 262 255 235 231 232 239 230 233 235 236 238 242 243 241 240 241 244 248 252 254 258 264 270 269 262 270 271 288 293
267 267 264 258 258 258 259 257 244 249 255 254 243 243 244 248 257 261 264 263 261 263 250 234 228 231 232 231 236 242 234 243 242 232 224 228 232 237 242 250 251 258 264 264 271 274 283 285 281
267 265 261 258 249 251 269 268 248 248 250 251 251 248 247 248 247 250 260 268 273 262 252 236 232 229 233 229 231 235 238 240 243 252 238 229 225 235 240 244 246 251 255 262 265 267 277 272 271
268 264 259 258 248 233 235 238 245 254 253 247 249 252 253 250 250 249 256 261 264 265 255 234 233 231 235 234 232 230 239 242 241 252 251 232 230 230 235 243 244 250 256 257 264 264 268 272 275
266 266 265 263 250 228 227 233 227 228 237 254 257 252 248 248 252 255 257 260 260 263 261 248 232 239 229 239 235 233 239 240 239 241 249 241 258 230 230 237 245 250 254 258 261 266 268 261 272
270 273 271 267 262 255 240 234 223 227 241 257 256 258 255 252 249 249 253 258 260 262 262 254 236 237 239 231 237 236 230 241 247 240 247 252 250 246 246 253 241 246 249 255 257 264 265 274 267
276 278 283 273 267 263 251 251 242 236 240 251 262 252 249 251 251 249 249 254 253 259 262 254 238 233 242 242 234 237 237 235 237 242 248 245 243 255 253 255 241 257 245 254 257 274 265 272 265
272 281 278 283 265 253 256 249 263 249 250 257 254 236 236 243 253 257 259 258 255 257 258 250 240 236 241 250 248 235 239 239 243 246 249 247 251 255 253 254 251 247 244 251 260 261 269 274 274
262 258 267 269 267 260 268 260 266 268 261 251 247 237 247 250 246 251 253 256 256 257 255 257 248 241 242 240 249 251 242 241 244 249 246 250 247 251 259 261 248 250 254 261 251 256 263 285 278
270 243 260 252 257 274 273 263 258 271 264 254 236 229 235 253 255 250 253 256 257 255 254 252 253 246 243 246 248 253 254 247 245 248 251 253 253 248 254 258 259 259 255 257 245 259 269 283 280
279 276 274 275 254 273 271 264 282 255 248 231 250 231 229 243 250 259 260 266 256 250 253 256 255 252 248 249 246 246 249 248 253 253 251 254 255 253 251 253 250 262 252 247 272 272 264 275 280
281 290 277 269 265 266 262 264 282 262 255 241 239 217 225 234 243 261 271 268 259 250 248 248 247 247 249 247 247 249 248 248 255 262 259 258 252 256 256 247 247 254 255 258 256 256 267 263 282
280 282 274 277 278 272 263 274 272 265 245 241 210 220 242 239 248 262 264 258 260 260 253 251 248 245 245 247 248 250 251 253 246 246 254 261 262 245 247 248 241 242 253 248 254 259 262 276 281
271 275 259 261 264 261 268 262 238 252 266 254 232 218 237 249 254 259 267 274 262 257 256 253 253 252 246 245 246 247 251 252 253 256 259 260 258 250 248 254 247 244 245 250 256 259 265 266 271
276 267 253 271 272 261 260 260 263 265 253 250 247 232 227 241 243 251 254 260 261 260 258 259 255 252 252 247 244 243 246 248 250 251 251 254 256 257 255 250 250 255 255 256 257 254 257 260 265
Height
5870 5871 5874 5876 5882 5885 5892 5901 5903 5901 5899 5903 5908 5903 5899 5899 5899 5900 5910 5909 5912 5913 5913 5915 5916 5917 5918 5918 5918 5918 5919 5920 5920 5921 5921 5920 5920 5919 5917 5916 5914 5913 5911 5910 5909 5907 5906 5904 5901
5865 5865 5869 5869 5876 5880 5891 5893 5890 5891 5892 5895 5905 5903 5895 5895 5902 5901 5910 5910 5912 5913 5913 5914 5914 5915 5916 5917 5918 5918 5918 5919 5919 5920 5920 5920 5919 5917 5916 5916 5915 5913 5911 5911 5909 5909 5907 5905 5903
5859 5858 5863 5863 5869 5874 5887 5885 5883 5881 5885 5889 5896 5898 5888 5890 5897 5901 5907 5912 5909 5910 5912 5913 5913 5914 5914 5916 5917 5918 5918 5918 5919 5920 5920 5918 5918 5916 5916 5916 5914 5912 5911 5910 5909 5907 5907 5905 5904
5853 5852 5855 5857 5863 5873 5876 5872 5874 5873 5876 5883 5887 5892 5886 5889 5891 5895 5898 5908 5907 5906 5909 5910 5911 5912 5913 5914 5915 5916 5917 5918 5918 5919 5919 5918 5917 5916 5915 5915 5914 5912 5910 5909 5908 5907 5906 5904 5903
5844 5845 5848 5851 5857 5865 5865 5869 5865 5866 5870 5874 5881 5884 5883 5879 5885 5886 5894 5898 5903 5903 5905 5907 5908 5910 5911 5911 5913 5913 5914 5916 5917 5917 5917 5918 5917 5916 5915 5914 5914 5913 5910 5908 5907 5906 5905 5904 5902
5836 5840 5840 5845 5850 5857 5859 5857 5855 5861 5864 5866 5872 5874 5871 5869 5877 5881 5890 5891 5893 5901 5899 5903 5904 5906 5908 5909 5910 5911 5912 5914 5915 5915 5916 5916 5915 5914 5914 5914 5913 5913 5912 5910 5907 5906 5906 5903 5902
5831 5832 5836 5839 5843 5848 5853 5854 5853 5860 5859 5861 5864 5867 5863 5864 5867 5877 5883 5885 5879 5896 5896 5898 5900 5901 5904 5905 5907 5907 5909 5911 5912 5912 5913 5914 5914 5913 5912 5912 5911 5911 5911 5910 5908 5906 5904 5903 5901
5823 5823 5827 5831 5835 5841 5847 5846 5848 5848 5855 5854 5855 5860 5859 5857 5859 5866 5872 5882 5876 5890 5892 5891 5895 5897 5899 5901 5903 5904 5906 5907 5909 5910 5910 5910 5911 5911 5912 5911 5910 5910 5910 5909 5907 5905 5904 5902 5900
5814 5816 5820 5828 5831 5835 5839 5838 5840 5841 5841 5846 5849 5855 5853 5851 5852 5857 5865 5875 5871 5880 5887 5887 5889 5891 5893 5895 5897 5900 5902 5904 5905 5906 5907 5907 5907 5908 5908 5908 5909 5909 5908 5908 5906 5905 5903 5901 5898
5807 5812 5818 5821 5823 5824 5829 5829 5833 5832 5833 5836 5840 5843 5847 5840 5843 5853 5863 5866 5869 5867 5878 5882 5883 5885 5887 5889 5891 5894 5897 5899 5901 5902 5903 5903 5903 5904 5905 5905 5905 5906 5906 5905 5904 5903 5902 5901 5898
5802 5805 5808 5812 5814 5814 5817 5820 5824 5823 5822 5826 5830 5834 5841 5835 5833 5841 5854 5856 5867 5859 5870 5873 5873 5877 5880 5883 5885 5889 5892 5894 5895 5897 5898 5899 5900 5901 5901 5901 5902 5902 5902 5902 5901 5900 5900 5898 5898
5792 5794 5797 5803 5803 5805 5807 5811 5813 5816 5815 5817 5819 5821 5825 5831 5827 5829 5841 5847 5857 5853 5854 5867 5869 5869 5873 5877 5879 5883 5885 5888 5890 5891 5892 5894 5895 5895 5896 5896 5897 5898 5897 5898 5898 5897 5896 5895 5893
5785 5787 5788 5790 5793 5795 5797 5800 5804 5807 5813 5810 5809 5810 5813 5817 5819 5821 5828 5836 5841 5851 5846 5855 5866 5866 5868 5872 5873 5875 5878 5881 5883 5885 5887 5889 5890 5890 5891 5892 5892 5894 5893 5894 5894 5894 5893 5891 5890
5777 5778 5782 5783 5784 5784 5785 5788 5790 5806 5805 5803 5800 5798 5805 5807 5812 5810 5816 5825 5828 5839 5841 5839 5854 5861 5858 5863 5867 5869 5871 5874 5877 5879 5882 5882 5884 5885 5886 5887 5887 5887 5888 5889 5888 5890 5890 5889 5888
5769 5770 5773 5777 5778 5778 5775 5774 5783 5796 5795 5796 5797 5794 5791 5797 5800 5803 5804 5812 5817 5824 5832 5833 5835 5846 5850 5849 5856 5860 5863 5866 5870 5874 5875 5877 5877 5878 5879 5881 5881 5882 5884 5884 5885 5885 5886 5886 5885
5761 5762 5763 5772 5770 5773 5768 5766 5780 5781 5777 5785 5790 5791 5787 5786 5789 5788 5791 5798 5804 5810 5819 5821 5827 5831 5840 5841 5841 5847 5852 5856 5861 5865 5868 5870 5870 5872 5872 5874 5875 5874 5876 5878 5879 5879 5881 5881 5879
5752 5753 5754 5760 5762 5761 5759 5758 5770 5769 5765 5767 5777 5780 5782 5786 5780 5780 5779 5786 5793 5800 5806 5811 5815 5818 5826 5831 5835 5835 5838 5847 5847 5848 5853 5859 5861 5863 5864 5867 5868 5867 5869 5871 5872 5872 5875 5876 5873
5745 5743 5743 5745 5752 5748 5747 5746 5754 5756 5756 5758 5762 5766 5769 5773 5775 5770 5769 5771 5781 5787 5794 5800 5806 5808 5810 5817 5822 5826 5825 5835 5838 5839 5841 5849 5849 5853 5854 5858 5859 5859 5859 5864 5865 5866 5867 5869 5868
5735 5734 5733 5736 5737 5735 5735 5736 5738 5742 5743 5748 5753 5755 5756 5760 5760 5762 5760 5765 5770 5772 5780 5786 5791 5794 5798 5802 5808 5811 5817 5821 5827 5829 5833 5831 5840 5843 5845 5849 5849 5851 5851 5857 5860 5860 5862 5863 5861
5726 5724 5724 5724 5726 5724 5725 5725 5730 5731 5734 5736 5739 5742 5745 5748 5751 5751 5749 5752 5758 5761 5764 5774 5778 5779 5785 5790 5795 5799 5801 5802 5809 5815 5817 5821 5829 5832 5835 5836 5838 5842 5846 5849 5853 5855 5855 5855 5853
5717 5715 5715 5713 5714 5715 5716 5714 5719 5720 5720 5724 5729 5733 5734 5738 5740 5739 5737 5743 5746 5750 5751 5761 5765 5769 5771 5776 5780 5783 5792 5789 5795 5799 5807 5813 5815 5821 5824 5827 5827 5829 5836 5841 5846 5847 5848 5849 5846
5708 5710 5706 5704 5703 5700 5704 5700 5708 5712 5712 5713 5716 5720 5722 5724 5725 5727 5727 5730 5736 5739 5741 5748 5753 5758 5759 5761 5768 5771 5775 5779 5785 5790 5793 5799 5802 5807 5811 5817 5818 5819 5826 5830 5838 5837 5838 5837 5839
5700 5698 5696 5695 5692 5690 5692 5691 5699 5700 5699 5701 5706 5707 5711 5712 5712 5715 5714 5718 5723 5727 5730 5735 5740 5743 5746 5749 5752 5759 5761 5766 5768 5773 5778 5787 5792 5798 5803 5807 5808 5809 5815 5823 5827 5826 5829 5832 5831
5691 5686 5683 5683 5681 5678 5685 5685 5684 5689 5692 5693 5696 5697 5700 5702 5704 5706 5707 5707 5711 5715 5719 5721 5727 5729 5733 5737 5741 5745 5749 5752 5755 5761 5767 5773 5782 5787 5789 5791 5794 5800 5807 5812 5815 5814 5819 5820 5823
5682 5675 5671 5669 5669 5667 5677 5671 5672 5682 5681 5681 5681 5685 5688 5688 5689 5692 5696 5699 5701 5703 5705 5709 5713 5718 5721 5724 5729 5732 5737 5741 5744 5749 5754 5761 5765 5772 5778 5780 5783 5788 5796 5799 5800 5804 5809 5811 5815
5671 5668 5663 5656 5657 5660 5664 5660 5668 5670 5672 5674 5672 5674 5677 5678 5680 5682 5686 5688 5689 5692 5693 5698 5703 5706 5710 5712 5717 5720 5724 5729 5732 5737 5741 5746 5753 5758 5764 5768 5774 5779 5784 5784 5789 5795 5796 5799 5806
5658 5658 5655 5647 5647 5649 5653 5657 5657 5660 5662 5664 5659 5665 5666 5668 5669 5671 5676 5676 5678 5681 5685 5687 5691 5694 5695 5700 5703 5706 5710 5714 5717 5721 5724 5731 5739 5744 5745 5752 5760 5769 5772 5776 5781 5784 5788 5789 5796
5649 5645 5645 5642 5640 5640 5642 5648 5651 5651 5652 5654 5652 5655 5657 5659 5659 5662 5665 5665 5667 5669 5672 5674 5678 5682 5686 5689 5692 5695 5699 5702 5706 5710 5715 5718 5723 5729 5736 5741 5747 5755 5761 5763 5769 5774 5777 5779 5786
5636 5635 5634 5634 5634 5633 5633 5641 5641 5643 5646 5647 5647 5645 5650 5651 5652 5654 5655 5658 5658 5660 5663 5666 5668 5671 5676 5679 5681 5685 5688 5691 5694 5697 5701 5704 5710 5715 5723 5729 5735 5741 5747 5753 5759 5765 5771 5771 5776
5627 5626 5625 5626 5626 5623 5624 5630 5634 5637 5638 5639 5635 5639 5637 5642 5643 5644 5648 5648 5650 5652 5653 5656 5659 5662 5665 5669 5672 5676 5679 5682 5684 5688 5693 5695 5700 5706 5712 5717 5723 5726 5732 5738 5747 5755 5758 5761 5766